Lexington Weather

Lexington, Massachusetts, USA

51°F
10/17/2021 10:30pm 
  • Lexington Conditions: Clear
  • Temperature: 51.4°F / 10.8°CColder 0.9°F than last hour.
  • Dew Point: 46.8°FDecreased 0.1°Fsince last hour.
  • Relative Humidity: 84%Increased 2.0% since last hour.
  • Wind: Wind from W W 1 mph, 10-min avg: Calm, gust: 3 mph
  • Barometer: 29.68 in Steady
  • Visibility: 10 miles
  • Rain Today: 0.35 in
  •   

Regional Weather Roundup
for Boston / Norton, MA

        
000
ASUS41 KBOX 140904
RWRBOX

REGIONAL WEATHER ROUNDUP
NATIONAL WEATHER SERVICE BOSTON/NORTON MA
500 AM EDT THU OCT 14 2021

NOTE:  "FAIR" INDICATES FEW OR NO CLOUDS BELOW 12,000 FEET WITH NO 
SIGNIFICANT WEATHER AND/OR OBSTRUCTIONS TO VISIBILITY.

MAZALL-141000-
EASTERN MASSACHUSETTS
  
CITY           SKY/WX    TMP DP  RH WIND       PRES   REMARKS
BOSTON         PTCLDY    62  57  83 W6        29.88S                  
BEVERLY        CLEAR     54  53  97 CALM      29.87S                  
LAWRENCE       CLEAR     56  55  97 S3        29.89F                  
BEDFORD        CLEAR     53  53 100 CALM      29.87S                  
BLUE HILL      NOT AVBL                                               
NORWOOD        FOG       52  50  93 CALM      29.88R VSB 1/4          
MARSHFIELD     FOG       59  57  94 VRB3      29.87S VSB 1/4          
PLYMOUTH       FOG       55  54  96 CALM      29.88S VSB 1/2          
TAUNTON        CLEAR     52  51  97 CALM      29.88S                  
NEW BEDFORD    CLEAR     57  57 100 CALM      29.87S FOG              
$$

MAZALL-141000-
CAPE COD AND THE ISLANDS
  
CITY           SKY/WX    TMP DP  RH WIND       PRES   REMARKS
FALMOUTH       MOCLDY    61  61 100 SW3       29.87F                  
HYANNIS        PTCLDY    56  55  97 CALM      29.86F FOG              
CHATHAM        CLOUDY    64  62  93 SW5       29.89S                  
PROVINCETOWN   CLEAR     60  60 100 SW5       29.88S                  
NANTUCKET      PTCLDY    62  59  90 S6        29.89S                  
MARTHAS VNYRD  CLOUDY    63  63 100 SW3       29.88F                  
$$
 
MAZALL-141000-
CENTRAL AND WESTERN MASSACHUSETTS
  
CITY           SKY/WX    TMP DP  RH WIND       PRES   REMARKS
WORCESTER      CLEAR     60  57  89 NW13      29.91S                  
FITCHBURG      CLEAR     60  57  89 NW7       29.90R                  
ORANGE         FOG       53  53 100 W3        29.93S VSB 1/2          
SPRINGFIELD    FOG       54  54 100 CALM      29.90F VSB 3/8          
WESTFIELD      FOG       53  52  96 S3        29.91F VSB 1            
NORTH ADAMS    CLOUDY    58  56  93 CALM      29.95R                  
PITTSFIELD     PTCLDY    58  56  93 SW5       29.95R                  
$$
 
RIZALL-141000-
RHODE ISLAND
  
CITY           SKY/WX    TMP DP  RH WIND       PRES   REMARKS
PROVIDENCE     CLEAR     59  58  96 W5        29.89S                  
NEWPORT        CLEAR     58  58 100 W3        29.88F                  
BLOCK ISLAND   PTCLDY    63  61  93 W10       29.91S                  
SMITHFIELD     CLEAR     56  56 100 W3        29.90R                  
WESTERLY       CLEAR     60  59  96 CALM      29.90S                  
$$
 
CTZALL-141000-
CONNECTICUT
  
CITY           SKY/WX    TMP DP  RH WIND       PRES   REMARKS
BRADLEY INTL   PTCLDY    54  54 100 CALM      29.92S                  
HARTFORD       FOG       57  55  93 CALM      29.91F VSB 1/2          
BRIDGEPORT     CLOUDY    64  62  93 CALM      29.92R                  
DANBURY        PTCLDY    59  57  93 SW3       29.95R FOG              
GROTON         PTCLDY    60  59  96 NW5       29.90S                  
NEW HAVEN      CLOUDY    64  62  93 CALM      29.92R FOG              
CHESTER        FAIR      61  61 100 NW3       29.91F                  
MERIDEN        FOG       56  55  97 CALM      29.92S VSB 3/4          
WILLIMANTIC    PTCLDY    53  52  96 CALM      29.92R                  
OXFORD         CLEAR     60  59  96 NW3       29.94S                  
$$

MEZ002-015-021-024-NHZ003-005-008-011-012-014-VTZ005-008-141000-
NORTHERN NEW ENGLAND
  
CITY           SKY/WX    TMP DP  RH WIND       PRES   REMARKS
PORTLAND ME    CLEAR     50  50 100 W6        29.87R                  
BANGOR ME      CLEAR     51  51 100 CALM      29.86F                  
CONCORD NH     CLEAR     51  50  96 CALM      29.89R                  
MANCHESTER NH  PTCLDY    58  53  84 CALM      29.87R                  
NASHUA NH      PTCLDY    54 N/A N/A NW3       29.89S                  
PORTSMOUTH NH  PTCLDY    54  53  99 CALM      29.88R FOG              
JAFFREY NH     CLEAR     53  51  93 CALM      29.93R                  
KEENE NH       FOG       53  53 100 CALM      29.94S VSB 1/4          
BURLINGTON VT  CLOUDY    63  61  93 CALM      29.93S                  
MT. WASHINGTON FOG       46  46 100 NW13        N/A  VSB 0            
$$

NYZ052-076-141000-
EASTERN NEW YORK
  
CITY           SKY/WX    TMP DP  RH WIND       PRES   REMARKS
ALBANY         PTCLDY    55  54  96 CALM      29.95R                  
NEW YORK CITY  PTCLDY    67  60  78 W7        29.92S                  
$$
 
ANZALL-141000-
MARINE OBSERVATIONS
  
STATION/POSITION TIME  TEMP    WIND        PRES    VSBY  WAVE
                       AIR SEA DIR/SP/G                  HT/PER
                 (UTC) (F)     (DEG/KT/KT) (MB)    (MI)  (FT/S)
BOSTON BUOY      0840      63  250/  8/ 10 1011.7F
BUZZARDS BAY     0800          260/ 14/ 15 1013.0F
NANTUCKET SOUND  0850   66     230/ 12/ 14   N/A           1
MASS BAY-STELLWA 0804   61     250/ 10/ 12 1010.7F  1 7/8  2/ 8
ISLE OF SHOALS   0800   60     250/  9/  9 1010.8F
S OF BLOCK IS    0826      65                N/A           3/ 8
$$

......................KEY.........................
  SKY/WX - SKY CONDITION/PRESENT WEATHER
  TMP    - TEMPERATURE IN FAHRENHEIT
  DWPT   - DEWPOINT IN FAHRENHEIT
  RH     - RELATIVE HUMIDITY IN PERCENT
  WIND   - DIRECTION AND SPEED IN MPH
  PRES   - MEAN SEA LEVEL PRESSURE IN INCHES OF HG
  WCI    - WIND CHILL INDEX
  VSB    - VISIBILITY IN MILES
  HX     - HEAT INDEX
  TC     - TEMPERATURE IN CELSIUS
  VRB    - VARIABLE WIND DIRECTION
  N/A    - NOT AVAILABLE
  
      

Other recent Regional Weather Roundups

Sun Oct 17, 10:04pm

Sun Oct 17, 9:04pm

Sun Oct 17, 8:04pm

Sun Oct 17, 7:04pm

Sun Oct 17, 6:04pm

Sun Oct 17, 5:04pm

Sun Oct 17, 4:04pm

Sun Oct 17, 3:04pm

Sun Oct 17, 2:04pm

Sun Oct 17, 1:04pm

Sun Oct 17, 12:04pm

Sun Oct 17, 11:04am

Sun Oct 17, 10:04am

Sun Oct 17, 9:04am

Sun Oct 17, 8:04am

Sun Oct 17, 7:04am

Sun Oct 17, 6:04am

Sun Oct 17, 5:04am

Sun Oct 17, 4:04am

Sun Oct 17, 3:04am

Sun Oct 17, 2:04am

Sun Oct 17, 1:04am

Sun Oct 17, 12:04am

Sat Oct 16, 11:04pm

Sat Oct 16, 10:04pm

Sat Oct 16, 9:04pm

Sat Oct 16, 8:04pm

Sat Oct 16, 7:04pm

Sat Oct 16, 6:04pm

Sat Oct 16, 5:04pm

Sat Oct 16, 4:04pm

Sat Oct 16, 3:04pm

Sat Oct 16, 2:04pm

Sat Oct 16, 1:04pm

Sat Oct 16, 12:04pm

Sat Oct 16, 11:04am

Sat Oct 16, 10:04am

Sat Oct 16, 9:04am

Sat Oct 16, 8:04am

Sat Oct 16, 7:04am

Sat Oct 16, 6:04am

Sat Oct 16, 5:04am

Sat Oct 16, 4:04am

Sat Oct 16, 3:04am

Sat Oct 16, 2:04am

Sat Oct 16, 1:04am

Sat Oct 16, 12:04am

Fri Oct 15, 11:04pm

Fri Oct 15, 10:04pm

Fri Oct 15, 9:04pm

Fri Oct 15, 8:04pm

Fri Oct 15, 7:04pm

Fri Oct 15, 6:04pm

Fri Oct 15, 5:04pm

Fri Oct 15, 4:04pm

Fri Oct 15, 3:04pm

Fri Oct 15, 2:05pm

Fri Oct 15, 1:05pm

Fri Oct 15, 12:04pm

Fri Oct 15, 11:05am

Fri Oct 15, 10:04am

Fri Oct 15, 9:04am

Fri Oct 15, 8:04am

Fri Oct 15, 7:04am

Fri Oct 15, 6:04am

Fri Oct 15, 5:04am

Fri Oct 15, 4:04am

Fri Oct 15, 3:05am

Fri Oct 15, 2:04am

Fri Oct 15, 1:04am

Fri Oct 15, 12:04am

Thu Oct 14, 11:04pm

Thu Oct 14, 10:04pm

Thu Oct 14, 9:04pm

Thu Oct 14, 8:04pm

Thu Oct 14, 7:04pm

Thu Oct 14, 6:04pm

Thu Oct 14, 5:04pm

Thu Oct 14, 4:04pm

Thu Oct 14, 3:04pm

Thu Oct 14, 2:04pm

Thu Oct 14, 1:04pm

Thu Oct 14, 12:04pm

Thu Oct 14, 11:04am

Thu Oct 14, 10:04am

Thu Oct 14, 9:04am

Thu Oct 14, 8:04am

Thu Oct 14, 7:04am

Thu Oct 14, 6:04am

Thu Oct 14, 4:04am

Thu Oct 14, 3:04am

Thu Oct 14, 2:04am

Thu Oct 14, 1:04am

Thu Oct 14, 12:04am

Wed Oct 13, 11:04pm

Wed Oct 13, 10:04pm

Wed Oct 13, 9:04pm

Wed Oct 13, 8:04pm

Wed Oct 13, 7:04pm

Wed Oct 13, 6:04pm

Wed Oct 13, 5:04pm

Wed Oct 13, 4:04pm

Wed Oct 13, 3:04pm

Wed Oct 13, 2:04pm

Wed Oct 13, 1:04pm

Wed Oct 13, 12:04pm

Wed Oct 13, 11:04am

Wed Oct 13, 10:04am

Wed Oct 13, 9:04am

Wed Oct 13, 8:04am

Wed Oct 13, 7:04am

Wed Oct 13, 6:04am

Wed Oct 13, 5:04am

Wed Oct 13, 4:04am

Wed Oct 13, 3:04am

Wed Oct 13, 2:04am

Wed Oct 13, 1:04am

Wed Oct 13, 12:04am

Tue Oct 12, 11:04pm

Tue Oct 12, 10:04pm

Tue Oct 12, 9:04pm

Tue Oct 12, 8:04pm

Tue Oct 12, 7:04pm

Tue Oct 12, 6:04pm

Tue Oct 12, 5:04pm

Tue Oct 12, 4:04pm

Tue Oct 12, 3:04pm

Tue Oct 12, 2:04pm

Tue Oct 12, 1:04pm

Tue Oct 12, 12:04pm

Tue Oct 12, 11:05am

Tue Oct 12, 10:04am

Tue Oct 12, 9:04am

Tue Oct 12, 8:04am

Tue Oct 12, 7:04am

Tue Oct 12, 6:04am

Tue Oct 12, 5:04am

Tue Oct 12, 4:04am

Tue Oct 12, 3:04am

Tue Oct 12, 2:04am

Tue Oct 12, 1:04am

Tue Oct 12, 12:04am

Mon Oct 11, 11:04pm

Mon Oct 11, 10:04pm

Mon Oct 11, 9:04pm

Mon Oct 11, 8:04pm

Mon Oct 11, 7:04pm

Mon Oct 11, 6:04pm

Mon Oct 11, 5:04pm

Mon Oct 11, 4:04pm

Mon Oct 11, 3:04pm

Mon Oct 11, 2:04pm

Mon Oct 11, 1:04pm

Mon Oct 11, 12:04pm

Mon Oct 11, 11:04am

Mon Oct 11, 10:04am

Mon Oct 11, 9:04am

Mon Oct 11, 8:04am

Mon Oct 11, 7:04am

Mon Oct 11, 6:04am

Mon Oct 11, 5:04am

Mon Oct 11, 4:04am

Mon Oct 11, 3:04am

Mon Oct 11, 2:04am

Mon Oct 11, 1:04am

Mon Oct 11, 12:05am

Sun Oct 10, 11:04pm

Meta data:

ID: 7b070982-53e3-4bfb-8d16-ded63da9638c
Link: https://api.weather.gov/products/7b070982-53e3-4bfb-8d16-ded63da9638c